When you browse on this site, cookies collect data to enhance your experience and personalize the content and advertising you see.
Visit our Privacy Policy to learn more. By continuing to use the site, you agree to this use of cookies and data.
  • In Hungary
  • List of Countries
  • For 7 days
  • Water Temperature
  • Weather Map
  • News
  • Weather Widgets
  • user-avatar
    Login

    Hourly Weather Dvorische

    Today, 21 October, Monday

    Time Temperature Precipitation Wind Pressure Humidity
    00:00 +12°C° 0 mm 2 mps 747 mmHg 96%
    01:00 +12°C° 0 mm 2 mps 747 mmHg 96%
    02:00 +11°C° 0 mm 3 mps 746 mmHg 97%
    03:00 +12°C° 0 mm 3 mps 746 mmHg 96%
    04:00 +12°C° 0 mm 4 mps 745 mmHg 95%
    05:00 +12°C° 0 mm 4 mps 745 mmHg 94%
    06:00 +12°C° 0 mm 4 mps 744 mmHg 93%
    07:00 +12°C° 0 mm 5 mps 744 mmHg 92%
    08:00 +12°C° 0 mm 5 mps 744 mmHg 89%
    09:00 +12°C° 0.3 mm 5 mps 744 mmHg 88%
    10:00 +12°C° 0.3 mm 5 mps 744 mmHg 86%
    11:00 +12°C° 0.3 mm 4 mps 744 mmHg 85%
    12:00 +12°C° 0.2 mm 4 mps 745 mmHg 84%
    13:00 +11°C° 0.2 mm 4 mps 745 mmHg 83%
    14:00 +11°C° 0.2 mm 4 mps 745 mmHg 81%
    15:00 +11°C° 0 mm 3 mps 746 mmHg 83%
    16:00 +10°C° 0 mm 3 mps 746 mmHg 85%
    17:00 +10°C° 0 mm 3 mps 747 mmHg 87%
    18:00 +9°C° 0 mm 3 mps 747 mmHg 89%
    19:00 +9°C° 0 mm 3 mps 748 mmHg 90%
    20:00 +8°C° 0 mm 2 mps 748 mmHg 91%
    21:00 +7°C° 0 mm 2 mps 749 mmHg 92%
    22:00 +7°C° 0 mm 2 mps 749 mmHg 94%
    23:00 +6°C° 0 mm 2 mps 749 mmHg 95%

    Tomorrow, 22 October, Tuesday

    Time Temperature Precipitation Wind Pressure Humidity
    00:00 +6°C° 0 mm 2 mps 749 mmHg 95%
    01:00 +6°C° 0 mm 2 mps 750 mmHg 96%
    02:00 +7°C° 0 mm 1 mps 750 mmHg 96%
    03:00 +7°C° 0 mm 1 mps 750 mmHg 95%
    04:00 +7°C° 0 mm 1 mps 750 mmHg 94%
    05:00 +6°C° 0 mm 0 mps 750 mmHg 93%
    06:00 +7°C° 0 mm 1 mps 751 mmHg 93%
    07:00 +7°C° 0 mm 1 mps 751 mmHg 92%
    08:00 +7°C° 0 mm 1 mps 751 mmHg 92%
    09:00 +7°C° 0 mm 2 mps 751 mmHg 88%
    10:00 +8°C° 0 mm 2 mps 751 mmHg 84%
    11:00 +8°C° 0 mm 3 mps 750 mmHg 80%
    12:00 +9°C° 0 mm 3 mps 750 mmHg 79%
    13:00 +9°C° 0 mm 3 mps 750 mmHg 78%
    14:00 +9°C° 0 mm 3 mps 749 mmHg 77%
    15:00 +9°C° 0 mm 3 mps 749 mmHg 80%
    16:00 +9°C° 0 mm 3 mps 748 mmHg 83%
    17:00 +8°C° 0 mm 3 mps 748 mmHg 86%
    18:00 +9°C° 0.1 mm 3 mps 747 mmHg 88%
    19:00 +9°C° 0.1 mm 3 mps 747 mmHg 90%
    20:00 +10°C° 0.1 mm 4 mps 746 mmHg 92%
    21:00 +10°C° 0 mm 4 mps 746 mmHg 92%
    22:00 +11°C° 0 mm 3 mps 745 mmHg 91%
    23:00 +11°C° 0 mm 3 mps 745 mmHg 90%

    Day after tomorrow, 23 October, Wednesday

    Time Temperature Precipitation Wind Pressure Humidity
    00:00 +11°C° 0 mm 3 mps 745 mmHg 88%
    01:00 +11°C° 0 mm 3 mps 745 mmHg 86%
    02:00 +11°C° 0 mm 3 mps 745 mmHg 84%
    03:00 +11°C° 0 mm 3 mps 745 mmHg 85%
    04:00 +10°C° 0 mm 3 mps 745 mmHg 87%
    05:00 +10°C° 0 mm 3 mps 744 mmHg 89%
    06:00 +10°C° 0 mm 4 mps 744 mmHg 86%
    07:00 +10°C° 0 mm 4 mps 745 mmHg 84%
    08:00 +11°C° 0 mm 4 mps 745 mmHg 82%
    09:00 +11°C° 0 mm 4 mps 745 mmHg 80%
    10:00 +11°C° 0 mm 4 mps 745 mmHg 78%
    11:00 +10°C° 0 mm 5 mps 745 mmHg 75%
    12:00 +11°C° 0 mm 4 mps 745 mmHg 75%
    13:00 +11°C° 0 mm 4 mps 746 mmHg 75%
    14:00 +11°C° 0 mm 4 mps 746 mmHg 74%
    15:00 +10°C° 0 mm 3 mps 746 mmHg 76%
    16:00 +10°C° 0 mm 3 mps 746 mmHg 79%
    17:00 +9°C° 0 mm 3 mps 746 mmHg 81%
    18:00 +9°C° 0 mm 3 mps 746 mmHg 81%
    19:00 +9°C° 0 mm 2 mps 747 mmHg 81%
    20:00 +9°C° 0 mm 2 mps 747 mmHg 81%
    21:00 +9°C° 0 mm 2 mps 747 mmHg 81%
    22:00 +9°C° 0 mm 2 mps 747 mmHg 82%
    23:00 +9°C° 0 mm 2 mps 747 mmHg 83%

    24 October, Thursday

    Time Temperature Precipitation Wind Pressure Humidity
    00:00 +9°C° 0 mm 2 mps 748 mmHg 84%
    01:00 +9°C° 0 mm 2 mps 748 mmHg 85%
    02:00 +8°C° 0 mm 2 mps 748 mmHg 86%
    03:00 +8°C° 0 mm 2 mps 748 mmHg 88%
    04:00 +8°C° 0 mm 2 mps 748 mmHg 90%
    05:00 +8°C° 0 mm 2 mps 748 mmHg 91%
    06:00 +8°C° 0 mm 2 mps 749 mmHg 91%
    07:00 +8°C° 0 mm 2 mps 749 mmHg 92%
    08:00 +8°C° 0 mm 2 mps 749 mmHg 92%
    09:00 +9°C° 0 mm 2 mps 749 mmHg 89%
    10:00 +10°C° 0 mm 2 mps 749 mmHg 85%
    11:00 +10°C° 0 mm 2 mps 749 mmHg 82%
    12:00 +10°C° 0 mm 2 mps 749 mmHg 81%
    13:00 +10°C° 0 mm 2 mps 749 mmHg 80%
    14:00 +10°C° 0 mm 2 mps 750 mmHg 79%
    15:00 +9°C° 0 mm 2 mps 749 mmHg 79%
    16:00 +9°C° 0 mm 2 mps 749 mmHg 80%
    17:00 +9°C° 0 mm 2 mps 749 mmHg 80%
    18:00 +8°C° 0 mm 2 mps 750 mmHg 80%
    19:00 +8°C° 0 mm 2 mps 750 mmHg 80%
    20:00 +8°C° 0 mm 2 mps 750 mmHg 80%
    21:00 +8°C° 0 mm 2 mps 750 mmHg 80%
    22:00 +7°C° 0 mm 2 mps 750 mmHg 81%
    23:00 +7°C° 0 mm 2 mps 750 mmHg 82%

    25 October, Friday

    Time Temperature Precipitation Wind Pressure Humidity
    00:00 +8°C° 0 mm 1 mps 750 mmHg 83%
    01:00 +7°C° 0 mm 1 mps 750 mmHg 84%
    02:00 +7°C° 0 mm 1 mps 751 mmHg 85%
    03:00 +6°C° 0 mm 1 mps 751 mmHg 89%
    04:00 +6°C° 0 mm 1 mps 750 mmHg 92%
    05:00 +5°C° 0 mm 1 mps 750 mmHg 95%
    06:00 +4°C° 0 mm 2 mps 750 mmHg 94%
    07:00 +5°C° 0 mm 2 mps 750 mmHg 92%
    08:00 +5°C° 0 mm 2 mps 750 mmHg 91%
    09:00 +6°C° 0 mm 2 mps 750 mmHg 87%
    10:00 +7°C° 0 mm 2 mps 750 mmHg 82%
    11:00 +8°C° 0 mm 2 mps 750 mmHg 78%
    12:00 +9°C° 0 mm 2 mps 750 mmHg 77%
    13:00 +9°C° 0 mm 3 mps 749 mmHg 75%
    14:00 +10°C° 0 mm 3 mps 749 mmHg 74%
    15:00 +9°C° 0 mm 3 mps 748 mmHg 78%
    16:00 +9°C° 0 mm 3 mps 747 mmHg 81%
    17:00 +7°C° 0 mm 4 mps 747 mmHg 85%
    18:00 +7°C° 0 mm 4 mps 746 mmHg 85%
    19:00 +7°C° 0 mm 4 mps 746 mmHg 84%
    20:00 +7°C° 0 mm 4 mps 746 mmHg 84%
    21:00 +7°C° 0 mm 4 mps 745 mmHg 85%
    22:00 +7°C° 0 mm 4 mps 745 mmHg 86%
    23:00 +7°C° 0 mm 4 mps 744 mmHg 87%

    26 October, Saturday

    Time Temperature Precipitation Wind Pressure Humidity
    00:00 +8°C° 0 mm 4 mps 744 mmHg 88%
    01:00 +10°C° 0 mm 4 mps 744 mmHg 89%
    02:00 +10°C° 0 mm 4 mps 744 mmHg 89%
    03:00 +10°C° 0 mm 4 mps 744 mmHg 88%
    04:00 +11°C° 0 mm 4 mps 744 mmHg 86%
    05:00 +11°C° 0 mm 4 mps 743 mmHg 85%
    06:00 +10°C° 0 mm 5 mps 744 mmHg 83%
    07:00 +10°C° 0 mm 5 mps 744 mmHg 80%
    08:00 +9°C° 0 mm 5 mps 744 mmHg 78%
    09:00 +9°C° 0 mm 5 mps 744 mmHg 74%
    10:00 +9°C° 0 mm 5 mps 745 mmHg 69%
    11:00 +9°C° 0 mm 6 mps 745 mmHg 65%
    12:00 +9°C° 0 mm 5 mps 745 mmHg 66%
    13:00 +9°C° 0 mm 5 mps 745 mmHg 67%
    14:00 +10°C° 0 mm 4 mps 746 mmHg 68%
    15:00 +8°C° 0 mm 4 mps 746 mmHg 72%
    16:00 +8°C° 0 mm 3 mps 746 mmHg 75%
    17:00 +7°C° 0 mm 3 mps 746 mmHg 79%
    18:00 +7°C° 0 mm 3 mps 746 mmHg 81%
    19:00 +7°C° 0 mm 3 mps 746 mmHg 83%
    20:00 +6°C° 0 mm 2 mps 746 mmHg 85%
    21:00 +6°C° 0 mm 2 mps 746 mmHg 87%
    22:00 +6°C° 0 mm 2 mps 746 mmHg 88%
    23:00 +6°C° 0 mm 2 mps 746 mmHg 90%

    27 October, Sunday

    Time Temperature Precipitation Wind Pressure Humidity
    00:00 +5°C° 0 mm 3 mps 745 mmHg 89%
    01:00 +5°C° 0 mm 3 mps 745 mmHg 88%
    02:00 +5°C° 0 mm 4 mps 744 mmHg 86%
    03:00 +5°C° 0 mm 4 mps 744 mmHg 85%
    04:00 +5°C° 0 mm 4 mps 743 mmHg 84%
    05:00 +6°C° 0 mm 5 mps 742 mmHg 83%
    06:00 +6°C° 0 mm 5 mps 742 mmHg 83%
    07:00 +7°C° 0 mm 5 mps 741 mmHg 83%
    08:00 +7°C° 0 mm 5 mps 741 mmHg 84%
    09:00 +9°C° 0 mm 5 mps 740 mmHg 81%
    10:00 +10°C° 0 mm 6 mps 740 mmHg 78%
    11:00 +11°C° 0 mm 6 mps 739 mmHg 75%
    12:00 +11°C° 0.1 mm 6 mps 739 mmHg 78%
    13:00 +10°C° 0.1 mm 6 mps 738 mmHg 81%
    14:00 +10°C° 0.1 mm 6 mps 738 mmHg 84%
    15:00 +10°C° 0.5 mm 5 mps 738 mmHg 82%
    16:00 +9°C° 0.5 mm 5 mps 738 mmHg 79%
    17:00 +10°C° 0.5 mm 4 mps 738 mmHg 76%
    18:00 +7°C° 0.1 mm 4 mps 738 mmHg 75%
    19:00 +6°C° 0.1 mm 4 mps 738 mmHg 73%
    20:00 +5°C° 0.1 mm 3 mps 738 mmHg 71%
    21:00 +5°C° 0 mm 4 mps 737 mmHg 74%
    22:00 +4°C° 0 mm 4 mps 737 mmHg 76%
    23:00 +4°C° 0 mm 4 mps 737 mmHg 79%
    Show more